Change the Weather History Date:

Monday, November 26, 2012

  Actual Average Record
Temperature  
Mean Temperature 53 °F 52 °F  
Max Temperature 65 °F 64 °F 84 °F (1965)
Min Temperature 41 °F 41 °F 21 °F (1900)
Degree Days  
Heating Degree Days 12 13  
Month to date heating degree days 305 247  
Since 1 July heating degree days 416 354  
Cooling Degree Days 0 0  
Month to date cooling degree days 11 21  
Year to date cooling degree days 2521 2252  
Growing Degree Days 5 (Base 50)    
Moisture  
Dew Point 56 °F    
Average Humidity 86    
Maximum Humidity 100    
Minimum Humidity 71    
Precipitation  
Precipitation 0.29 in 0.18 in 3.64 in (1948)
Month to date precipitation 2.36 4.01  
Year to date precipitation 60.24 48.24  
Sea Level Pressure  
Sea Level Pressure 30.08 in    
Wind  
Wind Speed 7 mph (SSE)    
Max Wind Speed 16 mph    
Max Gust Speed 22 mph    
Visibility 9 miles    
Events Rain , Thunderstorm    
T = Trace of Precipitation, MM = Missing Value Source: NWS Daily Summary

Daily Weather History Graph

Daily Weather History Graph

Search for Another Location

Airport or City:

Trip Planner

Search our weather history database for the weather conditions in past years. The results will help you decide how hot, cold, wet, or windy it might be!

Date:

Astronomy

Nov. 26, 2012 Rise Set
Actual Time 6:39 AM CST 4:55 PM CST
Civil Twilight 6:13 AM CST 5:22 PM CST
Nautical Twilight 5:43 AM CST 5:52 PM CST
Astronomical Twilight 5:13 AM CST 6:21 PM CST
Moon 3:45 PM CST (11/26) 4:53 AM CST (11/26)
Length of Visible Light 11h 08m
Length of Day
10h 15m
Waxing Gibbous, 97% of the Moon is Illuminated
Nov 26
Waxing Gibbous
Nov 28
Full
Dec 6
Last Quarter
Dec 13
New
Dec 19
First Quarter

Hourly Weather History & Observations

Time (CST) Temp. Windchill Dew Point Humidity Pressure Visibility Wind Dir Wind Speed Gust Speed Precip Events Conditions
12:54 AM 45.0 °F 42.6 °F 39.0 °F 80% 30.09 in 10.0 mi SSE 4.6 mph - N/A   Clear
1:54 AM 45.0 °F - 41.0 °F 86% 30.08 in 10.0 mi Calm Calm - N/A   Clear
2:54 AM 43.0 °F - 39.9 °F 89% 30.09 in 10.0 mi Calm Calm - N/A   Clear
3:54 AM 44.1 °F 42.5 °F 42.1 °F 93% 30.09 in 10.0 mi SSE 3.5 mph - N/A   Scattered Clouds
4:54 AM 48.0 °F - 45.0 °F 89% 30.08 in 10.0 mi SSE 3.5 mph - N/A   Mostly Cloudy
5:54 AM 48.0 °F - 46.0 °F 93% 30.10 in 6.0 mi Calm Calm - 0.00 in Rain Light Rain
6:54 AM 50.0 °F - 48.0 °F 93% 30.10 in 4.0 mi SSE 8.1 mph - 0.04 in Rain Rain
7:54 AM 52.0 °F - 48.9 °F 89% 30.13 in 10.0 mi SSE 5.8 mph - 0.09 in Rain Light Rain
8:54 AM 53.1 °F - 50.0 °F 89% 30.14 in 7.0 mi South 6.9 mph - 0.01 in Rain Light Rain
9:54 AM 55.9 °F - 53.1 °F 90% 30.13 in 10.0 mi SSE 8.1 mph - 0.01 in   Overcast
10:54 AM 61.0 °F - 55.9 °F 83% 30.11 in 10.0 mi SSE 8.1 mph - 0.00 in   Mostly Cloudy
11:54 AM 64.9 °F - 57.9 °F 78% 30.06 in 10.0 mi SSE 13.8 mph - N/A   Mostly Cloudy
12:54 PM 64.0 °F - 57.9 °F 80% 30.03 in 10.0 mi SSE 16.1 mph - 0.00 in Rain Light Rain
1:10 PM 62.6 °F - 59.0 °F 88% 30.06 in 6.0 mi South 9.2 mph 18.4 mph 0.00 in Rain , Thunderstorm Thunderstorms and Rain
1:25 PM 62.6 °F - 60.8 °F 94% 30.06 in 1.2 mi Calm Calm - 0.07 in Rain , Thunderstorm Heavy Thunderstorms and Rain
1:30 PM 62.6 °F - 60.8 °F 94% 30.06 in 3.0 mi Calm Calm - 0.11 in Rain Light Rain
1:39 PM 62.6 °F - 60.8 °F 94% 30.07 in 10.0 mi Calm Calm - 0.11 in Rain Light Rain
1:54 PM 64.0 °F - 61.0 °F 90% 30.06 in 6.0 mi East 4.6 mph - 0.11 in   Overcast
2:01 PM 64.4 °F - 60.8 °F 88% 30.05 in 10.0 mi SE 5.8 mph - N/A   Overcast
2:54 PM 64.0 °F - 62.1 °F 93% 30.04 in 10.0 mi SSE 5.8 mph - 0.01 in   Overcast
3:54 PM 64.0 °F - 62.1 °F 93% 30.05 in 10.0 mi South 9.2 mph - 0.01 in   Overcast
4:17 PM 64.4 °F - 62.6 °F 94% 30.05 in 10.0 mi SSE 5.8 mph - N/A   Overcast
4:54 PM 64.0 °F - 62.1 °F 93% 30.06 in 10.0 mi SSE 6.9 mph - N/A   Overcast
5:50 PM 64.4 °F - 62.6 °F 94% 30.07 in 10.0 mi SSE 6.9 mph - 0.01 in   Overcast
5:54 PM 63.0 °F - 62.1 °F 97% 30.07 in 10.0 mi SSE 8.1 mph - 0.01 in   Overcast
6:31 PM 62.6 °F - 62.6 °F 100% 30.07 in 10.0 mi SSE 5.8 mph - N/A   Overcast
6:42 PM 62.6 °F - 62.6 °F 100% 30.08 in 10.0 mi South 5.8 mph - N/A   Overcast
6:54 PM 64.0 °F - 62.1 °F 93% 30.08 in 10.0 mi South 6.9 mph - N/A   Overcast
7:54 PM 64.0 °F - 62.1 °F 93% 30.08 in 10.0 mi South 9.2 mph - N/A   Overcast
8:05 PM 64.4 °F - 60.8 °F 88% 30.09 in 10.0 mi South 10.4 mph - N/A   Overcast
8:33 PM 64.4 °F - 60.8 °F 88% 30.09 in 10.0 mi South 6.9 mph - N/A   Overcast
8:54 PM 63.0 °F - 61.0 °F 93% 30.09 in 10.0 mi South 5.8 mph - N/A   Overcast
9:54 PM 63.0 °F - 61.0 °F 93% 30.09 in 10.0 mi South 9.2 mph - N/A   Overcast
10:54 PM 63.0 °F - 61.0 °F 93% 30.06 in 10.0 mi SSE 10.4 mph - N/A   Mostly Cloudy
11:38 PM 62.6 °F - 60.8 °F 94% 30.06 in 10.0 mi South 10.4 mph - N/A   Overcast
11:54 PM 64.0 °F - 61.0 °F 90% 30.06 in 10.0 mi South 10.4 mph - N/A   Overcast